Location: Carnetin
(48.9010°N, 2.7059°E)
Time: 04:23:56
(UTC+00:00)

USA 229 - Pass Details

Date: 04 June 2022
Orbit: 938 x 1274 km, 63.4° (Epoch: 24 May)

Event Time Altitude Azimuth Distance (km) Brightness Sun altitude
Rises 21:13:56 0° 317° (NW) 3,924 8.8 -10.8°
Reaches altitude 10° 21:16:34 10° 320° (NW) 3,011 7.6 -11.0°
Maximum altitude 21:23:48 69° 44° (NE) 1,267 4.1 -11.7°
Enters shadow 21:30:52 13° 127° (SE) 2,977 5.4 -12.3°
